Theta_e
330 334 351 355 354 355 354 353 352 352 350 350 352 352 352 352 351 351 350 348 346 343 341 342 342 342 342 343 345 348 348 348 347 347 347 347 348 349 350 349 349 347 350
330 336 349 354 355 355 355 353 352 351 350 350 351 351 352 352 351 350 348 346 344 343 342 340 340 340 339 340 342 343 344 342 343 344 344 345 347 346 348 346 347 346 350
332 339 347 352 355 355 354 354 352 351 350 349 349 349 349 350 349 347 345 347 343 342 342 339 338 337 336 337 337 338 338 337 338 340 342 337 338 344 344 344 344 344 346
333 341 345 348 354 355 354 353 352 351 351 349 347 347 347 345 346 346 346 345 343 341 340 337 336 334 333 333 333 334 334 339 340 338 337 338 339 343 342 341 341 341 340
334 339 343 347 354 354 353 352 352 351 351 349 347 346 346 346 346 347 346 345 340 338 338 335 333 330 329 329 329 331 334 338 336 335 333 334 335 340 341 339 338 337 338
333 338 342 348 352 353 351 351 351 351 351 350 348 348 346 345 346 343 340 342 340 335 332 332 330 327 324 323 324 328 335 334 329 325 326 329 330 339 338 338 336 337 335
330 336 339 346 350 351 351 350 350 350 351 350 350 349 346 343 341 337 336 338 337 334 331 331 328 324 321 318 320 323 332 329 321 321 324 326 331 337 336 334 333 333 333
330 334 337 338 343 347 349 349 349 349 349 348 348 348 346 343 340 335 334 334 334 332 331 330 326 322 318 316 317 320 326 323 318 316 317 320 333 335 335 331 333 332 334
326 331 334 338 340 338 342 343 345 346 346 346 346 346 345 342 339 337 336 334 332 332 331 329 324 321 317 314 316 319 320 320 310 311 315 315 328 330 330 331 331 330 330
323 328 330 333 341 340 339 336 338 341 342 342 341 339 336 334 334 334 331 333 332 333 330 328 323 320 317 312 312 315 317 313 305 307 309 312 325 325 326 327 327 327 327
316 319 326 330 337 340 342 335 331 334 336 337 336 333 330 329 328 327 327 330 333 334 330 328 323 320 316 310 311 309 305 300 300 301 304 316 320 320 320 320 322 324 325
305 313 319 327 335 337 339 340 337 334 335 337 335 333 330 329 328 326 322 326 330 329 330 327 323 318 304 292 292 298 292 295 297 297 300 315 316 318 319 320 321 322 324
296 301 305 319 332 335 336 336 337 338 337 336 335 333 329 325 325 324 323 323 322 319 317 318 311 305 296 292 292 292 291 291 293 295 299 312 316 318 319 319 320 323 323
295 296 297 299 316 332 335 336 335 335 332 329 332 330 327 325 323 322 321 321 320 317 315 309 306 303 299 295 293 292 291 291 291 294 295 306 311 317 320 319 320 323 323
294 295 296 298 299 320 331 333 333 333 333 332 328 328 328 325 322 321 320 319 317 315 313 309 304 302 299 294 292 292 291 291 290 293 294 302 311 314 320 322 322 325 323
294 294 296 299 304 311 325 329 331 330 331 330 329 328 326 325 323 320 318 317 315 313 309 306 303 301 298 293 292 292 291 290 290 290 294 296 308 315 318 323 325 326 324
292 294 295 299 306 313 319 321 325 326 327 327 327 325 324 322 321 317 318 316 315 312 309 306 302 298 295 292 291 291 291 291 290 290 291 296 300 308 313 320 324 324 326
292 293 295 298 303 315 316 318 320 322 323 322 323 323 323 323 322 318 317 316 316 311 309 306 304 301 296 292 290 290 289 289 290 290 290 293 298 301 305 312 317 320 325
290 292 294 296 299 311 316 316 314 312 314 313 314 316 319 320 321 319 317 316 313 310 308 306 301 301 299 295 292 290 289 288 288 290 289 291 293 299 300 305 311 310 314
289 291 292 294 295 301 308 306 304 303 304 305 304 306 308 311 313 314 313 312 310 309 306 303 302 296 295 294 293 290 289 288 288 287 288 290 291 294 298 298 299 301 308
288 289 290 291 292 295 296 297 297 295 297 298 298 298 299 301 305 306 307 306 306 304 303 301 298 297 296 292 292 293 288 288 287 287 287 288 288 291 294 296 297 296 298
286 287 288 289 290 292 293 293 293 293 292 293 294 294 294 294 295 299 301 301 301 301 300 299 297 296 294 292 291 288 289 288 286 286 286 287 287 288 290 292 294 295 295
284 284 286 287 288 289 291 292 291 291 290 289 289 289 289 289 290 291 292 295 297 298 297 297 296 295 294 293 290 291 288 286 283 285 285 285 286 287 288 289 291 291 292
282 283 285 285 286 287 288 288 286 285 284 284 285 285 286 286 285 287 288 289 289 291 290 293 294 294 293 292 291 290 288 288 286 286 286 286 285 286 286 287 288 289 290
282 281 282 284 284 284 284 284 284 282 283 282 282 283 283 284 284 284 284 285 285 286 286 287 288 289 290 289 289 290 288 287 287 285 286 284 286 286 286 286 287 287 288
281 281 281 282 282 282 283 282 282 281 281 281 281 281 281 282 282 283 283 283 283 283 283 284 285 286 287 288 288 288 288 288 287 286 285 288 288 286 286 286 286 286 287
Wind_Speed
6 6 8 12 12 14 12 11 10 9 10 10 11 11 11 11 9 11 12 13 12 11 9 10 10 9 9 10 9 12 14 13 13 13 14 13 13 14 15 15 10 6 9
7 7 10 10 11 12 12 11 10 9 10 10 10 10 11 12 12 12 10 10 11 9 10 9 9 9 9 10 10 11 11 10 10 10 10 10 11 12 13 14 14 10 13
7 9 9 10 13 12 11 11 10 9 9 9 9 10 9 8 9 8 9 8 11 10 9 8 8 9 10 10 9 8 8 8 7 7 8 5 6 11 12 13 13 14 13
6 7 8 11 11 13 12 12 10 9 9 8 8 7 7 7 7 6 7 9 9 11 9 8 9 9 9 9 9 8 8 8 8 6 4 5 4 11 11 12 14 15 16
6 6 6 9 11 12 13 14 13 9 8 9 8 8 8 6 7 5 5 5 12 10 8 6 7 8 8 8 7 6 7 9 10 7 6 5 3 8 12 12 12 12 12
5 6 7 10 10 9 13 14 13 12 10 10 9 10 10 8 8 7 6 7 9 8 3 4 6 7 7 7 6 6 7 9 8 6 5 6 4 8 9 10 10 8 8
5 4 6 11 10 9 10 12 12 11 11 12 11 9 10 8 6 4 5 6 7 4 3 4 5 6 7 6 5 4 7 9 5 5 5 5 5 7 7 7 7 6 5
6 5 5 8 9 9 9 10 10 10 9 10 11 14 13 10 7 3 2 3 3 3 2 2 4 6 6 6 5 4 6 7 5 4 4 4 5 5 5 5 5 4 5
3 5 5 6 7 8 9 9 10 10 9 10 10 11 11 11 9 7 4 1 3 3 3 1 4 5 5 6 6 5 6 7 5 3 3 3 5 3 3 3 2 2 3
1 3 3 3 8 4 5 8 9 9 7 6 6 8 8 10 9 9 7 4 4 2 2 0 2 4 5 6 6 5 6 7 4 3 3 3 4 2 2 2 1 1 1
3 3 3 3 6 7 5 4 6 7 7 6 5 6 7 4 5 7 6 6 3 2 2 2 1 3 6 8 8 6 6 2 2 2 2 5 4 2 2 2 2 1 1
8 6 5 4 5 6 5 5 4 4 4 5 5 5 3 3 4 5 4 4 1 2 3 2 1 8 6 3 3 6 3 3 3 2 2 6 5 4 2 2 2 2 2
7 6 8 6 7 7 5 3 2 3 2 3 4 4 5 4 3 3 2 2 2 3 2 3 4 3 3 3 3 3 3 3 2 2 5 8 7 7 5 4 4 3 2
8 7 9 8 7 10 5 4 4 3 2 0 3 5 4 2 3 3 3 3 3 2 2 1 1 2 2 2 3 4 4 3 2 2 4 8 8 8 8 6 6 4 3
10 10 11 8 6 7 11 6 4 3 3 3 2 2 4 4 4 3 3 3 3 3 3 2 1 1 1 2 2 2 4 4 4 3 3 9 9 9 10 9 7 6 6
13 14 11 11 8 6 6 8 4 2 2 3 2 3 4 4 4 4 4 4 4 3 4 3 2 1 2 2 3 3 3 3 3 4 3 4 9 9 10 11 10 8 8
8 10 12 12 11 1 5 5 4 2 2 1 0 2 4 5 6 6 4 3 3 3 5 5 3 1 1 2 4 4 3 4 4 4 4 4 5 8 9 9 12 10 10
10 12 11 10 11 8 6 6 4 4 4 4 4 3 4 4 3 1 2 3 2 3 3 3 3 2 3 2 3 4 4 4 5 5 5 4 4 4 6 9 9 9 9
11 12 13 12 12 12 13 12 12 13 10 9 9 9 11 8 5 3 2 2 1 2 3 2 2 3 1 1 3 4 4 4 5 4 6 6 6 5 4 8 9 9 10
11 11 12 11 13 10 10 10 9 11 10 10 10 11 14 11 12 8 6 6 5 3 3 3 3 2 1 1 2 4 4 5 5 5 6 4 5 5 5 5 5 5 10
14 14 15 14 13 8 6 4 7 6 7 10 11 14 14 13 13 11 7 7 6 5 5 4 2 4 2 3 3 3 3 5 6 5 3 4 6 5 6 5 3 3 5
10 10 12 13 13 9 5 4 4 4 6 8 8 13 14 14 14 11 10 8 8 5 5 4 4 2 2 2 2 1 4 5 3 3 3 3 4 3 5 5 5 5 5
12 11 11 12 13 11 10 5 4 5 5 7 10 9 12 13 13 13 13 11 10 7 6 4 3 2 1 1 2 1 3 3 4 2 2 3 4 3 5 5 6 6 5
8 7 9 12 12 11 10 13 15 9 9 4 4 6 8 12 13 12 11 11 10 8 11 8 7 4 2 2 0 2 1 1 3 6 3 3 3 5 5 4 5 6 6
7 7 7 10 12 11 11 11 10 11 7 4 5 8 9 9 11 11 11 12 11 8 8 9 9 9 5 4 3 2 1 3 4 4 8 4 4 4 4 4 5 5 6
6 7 6 10 10 9 11 12 12 11 8 8 8 8 6 5 7 11 9 8 7 8 9 7 6 7 6 5 4 4 4 3 2 3 4 7 8 5 4 4 5 5 5
Wind_Direction
238 196 182 167 169 153 151 145 134 124 117 112 112 110 113 110 120 107 86 78 78 72 69 62 57 60 62 60 52 53 72 65 63 61 64 66 63 60 57 44 42 50 68
157 174 174 173 169 148 151 147 142 136 129 120 111 105 96 107 101 102 97 92 87 74 63 52 52 49 53 53 48 50 60 63 65 61 60 56 63 64 57 48 40 46 60
148 164 171 178 170 159 157 149 150 148 141 131 124 119 115 107 106 106 104 99 89 73 56 53 52 47 41 43 44 48 50 41 52 67 71 56 57 70 60 52 45 43 44
154 162 169 174 174 164 164 157 153 152 146 138 132 127 125 124 135 127 127 125 104 72 61 50 47 44 40 37 35 33 35 44 47 93 54 46 32 75 68 57 47 37 27
156 160 171 177 172 176 183 159 152 158 155 152 149 142 128 114 169 145 136 125 84 73 59 40 40 38 35 32 30 31 46 56 57 66 54 35 7 92 79 71 57 47 37
158 162 169 181 180 184 169 156 160 161 166 167 175 171 147 128 107 90 51 72 94 90 53 27 36 30 27 22 33 43 72 71 64 58 51 27 12 70 72 63 64 55 47
165 166 172 181 185 180 176 165 167 172 189 186 176 172 146 141 126 98 59 44 62 54 358 2 26 26 20 16 35 55 83 81 75 59 51 34 26 60 69 59 52 46 38
175 177 180 192 187 180 177 172 174 187 214 185 187 173 156 157 160 140 66 355 12 312 291 347 15 19 17 17 31 66 93 92 74 71 45 24 16 53 60 65 67 52 40
196 187 192 190 198 185 182 183 184 194 213 207 198 172 161 160 159 149 144 139 219 256 287 326 20 12 13 19 28 60 76 80 71 42 37 3 348 45 54 65 61 41 26
283 273 259 222 211 200 191 187 187 194 205 224 184 160 154 160 163 159 163 174 209 238 258 88 26 4 10 11 17 50 78 79 72 45 19 332 357 43 35 24 2 357 356
357 295 283 260 235 224 217 208 202 197 193 208 197 171 155 161 171 170 168 190 210 159 193 166 60 359 41 11 13 28 38 34 51 24 354 330 352 338 342 327 302 289 301
333 316 267 228 219 224 218 203 197 211 205 197 176 181 165 176 161 168 172 184 223 123 133 174 157 82 53 23 352 5 12 3 10 346 321 326 323 309 298 300 298 254 218
309 337 336 296 237 216 210 178 178 203 208 187 197 184 158 161 146 144 139 142 85 59 30 59 68 72 54 31 1 351 353 4 342 333 333 336 328 317 296 289 274 230 207
343 334 329 334 298 238 209 190 173 179 174 239 182 155 151 160 143 154 162 159 147 116 129 107 101 115 90 25 354 335 340 346 333 326 320 329 321 311 300 279 268 243 250
349 336 330 318 303 253 225 212 169 163 162 162 175 176 148 155 161 152 165 156 167 151 166 182 192 203 314 338 349 347 333 334 329 319 314 321 323 312 301 287 261 237 252
343 341 331 324 308 243 214 211 190 153 153 149 174 187 190 157 158 166 183 176 184 182 153 160 185 270 299 325 310 311 296 298 297 297 297 306 310 315 305 291 275 254 250
338 329 345 341 335 82 117 104 85 88 60 67 245 202 217 210 183 173 167 205 193 179 157 137 135 106 310 321 299 308 307 292 283 275 271 271 289 299 302 306 291 267 256
351 359 351 358 5 28 85 98 88 62 49 31 15 358 329 315 335 160 208 211 180 171 166 154 163 189 230 245 291 299 301 301 292 283 285 281 276 282 294 296 312 310 299
356 0 6 9 20 43 59 63 63 56 50 43 39 29 18 17 2 341 313 326 210 165 198 188 145 149 183 273 272 275 275 282 282 291 279 278 273 273 283 289 298 315 316
9 17 20 22 21 28 62 69 65 58 51 46 40 34 28 29 32 38 39 36 21 13 12 25 5 31 56 320 300 284 269 257 248 244 254 270 268 276 277 288 307 311 313
23 25 24 26 13 30 38 49 49 57 39 44 43 38 35 29 30 32 39 40 37 43 46 48 29 352 356 23 319 322 305 262 264 265 268 269 286 287 288 289 291 303 309
27 25 31 39 31 25 34 49 76 79 53 56 43 39 29 29 29 33 32 33 30 38 49 52 64 9 24 30 15 252 336 328 344 355 293 253 261 282 296 291 289 284 285
28 16 27 32 40 32 41 67 65 60 52 37 31 32 28 30 33 31 30 28 22 24 29 27 36 70 22 341 137 165 320 296 319 327 339 330 295 269 261 256 263 265 269
13 13 35 42 44 40 41 65 66 74 77 37 48 37 37 35 34 34 41 40 35 26 21 7 6 2 353 288 304 193 201 161 286 314 320 320 325 284 293 280 267 262 253
12 20 23 53 51 47 53 64 75 77 74 62 54 54 40 32 35 33 29 27 32 35 31 23 17 12 358 340 331 322 184 201 218 247 300 317 314 258 247 248 257 266 260
29 40 33 63 54 51 61 65 73 77 73 65 48 49 31 23 26 27 28 34 33 27 17 11 16 30 17 3 352 337 310 300 258 238 261 290 281 276 268 266 249 238 231